Home > Weather > Little Rock > Past weeks

Flag for USA Past Weather in Little Rock, Arkansas, USA — Yesterday and Last 2 Weeks

Now
78 °F

Broken clouds.


Feels Like: 81 °F
Forecast: 76 / 92 °F
Wind: 5 mph from Southwest

Location: Adams Field

Current Time: Jul 29, 2016 at 8:55:56 PM

Latest Report: Jul 29, 2016 at 7:53 PM


Visibility: 10 mi

Pressure: 29.93 "Hg

Humidity: 82%

Dew Point: 72 °F

Location of Little RockLocation

Past Weather in Little Rock — Graph

°F

Little Rock Temperature Yesterday

Maximum temperature yesterday: 92 °F (at 1:53 PM)
Minimum temperature yesterday: 77 °F (at 2:53 AM)
Average temperature yesterday: 83 °F

High & Low Weather Summary for the Past Weeks

 TemperatureHumidityPressure
High103 °F (Jul 22, 2:53 PM)91% (Jul 15, 6:53 AM)30.23 "Hg (Jul 15, 6:53 AM)
Low71 °F (Jul 15, 5:53 AM)37% (Jul 22, 2:53 PM)29.87 "Hg (Jul 23, 3:53 PM)
Average85 °F70%30.02 "Hg
* Reported Jul 14 7:53 PM — Jul 29 7:53 PM, Little Rock, Weather by CustomWeather, © 2016

Note: Actual official high and low records may vary slightly from our data, if they occured in-between our weather recording intervals... More about our weather records

Advertising

Little Rock Weather History for the Previous 24 Hours

Scroll right to see more
 ConditionsComfort  
Time TempWeatherWind HumidityBarometerVisibility
7:53 PM
Fri, Jul 29
78 °FBroken clouds.5 mph82%29.93 "Hg10 mi
6:53 PM79 °FBroken clouds.5 mph77%29.93 "Hg10 mi
5:53 PM78 °FBroken clouds.7 mph82%29.95 "Hg10 mi
4:53 PM76 °FBroken clouds.15 mph88%29.95 "Hg10 mi
3:53 PM90 °FThunderstorms. Partly sunny.14 mph59%29.91 "Hg10 mi
2:53 PM93 °FBroken clouds.13 mph58%29.92 "Hg10 mi
1:53 PM93 °FScattered clouds.13 mph58%29.93 "Hg10 mi
12:53 PM91 °FScattered clouds.8 mph57%29.96 "Hg10 mi
11:53 AM87 °FScattered clouds.10 mph63%29.98 "Hg10 mi
10:53 AM83 °FBroken clouds.8 mph72%29.98 "Hg10 mi
9:53 AM83 °FPartly sunny.14 mph72%30.00 "Hg10 mi
8:53 AM80 °FPartly sunny.10 mph79%29.99 "Hg7 mi
7:53 AM77 °FLow clouds.12 mph85%29.99 "Hg7 mi
6:53 AM76 °FFog.12 mph88%29.96 "Hg5 mi
5:53 AM76 °FLow clouds.8 mph88%29.93 "Hg10 mi
4:53 AM76 °FPassing clouds.8 mph88%29.94 "Hg10 mi
3:53 AM76 °FPassing clouds.5 mph88%29.95 "Hg10 mi
2:53 AM76 °FPassing clouds.7 mph88%29.95 "Hg10 mi
1:53 AM77 °FPassing clouds.7 mph85%29.94 "Hg10 mi
12:53 AM77 °FPassing clouds.7 mph85%29.96 "Hg10 mi
11:53 PM
Thu, Jul 28
78 °FPassing clouds.7 mph84%29.96 "Hg10 mi
11:02 PM79 °FPassing clouds.7 mph82%29.96 "Hg10 mi
10:53 PM79 °FPassing clouds.7 mph82%29.96 "Hg10 mi
9:53 PM79 °FPassing clouds.10 mph84%29.94 "Hg10 mi
8:53 PM81 °FScattered clouds.9 mph79%29.93 "Hg10 mi
Weather by CustomWeather, © 2016

See weather overviewHow to use our weather pages